Wind_Speed
106 101 101 101 101 100 101 103 99 102 102 101 97 89 92 94 97 97 97 93 91 93 89 92 94 91 91 89 92 94 97 97
110 111 103 101 102 100 103 110 114 108 105 105 104 106 101 101 104 106 106 102 98 96 99 103 102 103 99 98 102 101 103 106
114 115 109 103 99 101 102 108 117 123 112 110 111 110 110 110 112 112 111 109 108 105 104 108 108 109 110 110 113 113 111 112
117 116 116 110 105 104 100 102 115 123 119 109 114 118 115 117 119 118 113 116 118 116 116 114 115 116 118 116 117 118 118 119
129 117 113 116 117 115 116 112 109 114 108 116 118 118 115 118 120 122 124 121 126 124 122 123 120 122 122 121 125 123 123 122
115 110 110 108 111 111 107 102 99 102 98 98 106 104 112 116 118 114 115 118 124 127 128 129 126 121 122 121 124 125 124 121
95 91 96 102 98 102 104 106 101 101 104 106 106 109 106 106 110 111 115 116 121 124 127 128 126 124 126 127 123 125 124 123
95 88 93 98 98 99 106 110 113 114 109 111 112 114 112 110 110 106 111 114 114 118 124 124 121 122 123 122 120 122 120 117
97 85 88 90 100 102 101 103 103 106 107 106 108 115 115 114 113 112 113 110 111 113 114 120 115 107 107 109 107 113 116 114
103 95 88 91 88 93 108 108 109 109 110 109 111 114 117 114 111 110 110 110 110 112 113 110 111 107 109 111 114 121 112 116
104 102 99 95 98 92 94 100 108 112 114 113 113 114 115 115 112 112 109 108 106 106 107 112 113 110 120 121 124 118 121 122
102 101 100 100 97 96 96 100 102 103 104 108 112 112 114 116 113 113 113 113 113 115 114 112 115 123 118 121 127 129 127 126
104 102 101 100 100 99 96 99 101 102 106 108 111 111 112 114 114 114 115 115 116 115 116 114 117 116 114 115 115 122 115 118
101 100 100 101 99 95 98 96 99 100 102 102 105 103 109 115 115 114 116 115 115 114 114 114 114 116 115 115 113 117 114 113
95 94 93 99 98 95 91 91 90 94 98 99 96 97 106 112 112 114 113 113 112 112 112 111 112 115 114 114 111 114 111 112
90 89 87 91 91 95 94 89 87 88 90 93 94 95 102 105 108 114 114 114 111 109 111 111 111 113 114 112 111 111 112 114
85 86 86 87 87 91 92 89 84 82 84 86 88 89 97 101 104 109 111 109 107 109 111 108 108 109 112 111 112 112 114 115
76 79 81 83 85 89 86 83 81 79 79 80 82 85 89 95 101 103 105 105 102 103 105 105 108 109 112 113 114 112 111 110
69 70 73 76 78 82 82 79 78 75 73 75 77 78 80 85 90 94 99 100 99 96 103 105 104 107 110 111 113 111 109 108
66 66 66 67 71 75 77 78 78 77 73 70 70 71 74 75 79 85 87 90 93 94 100 100 101 105 107 108 109 107 106 105
Wind_Direction
284 281 279 274 270 269 269 271 271 268 274 275 273 271 269 268 270 271 271 270 272 270 265 268 267 269 269 268 268 271 272 273
283 283 276 270 266 265 264 265 268 265 268 267 265 266 268 266 266 268 269 269 268 265 266 269 271 268 269 266 266 268 270 272
278 279 276 271 268 259 262 262 263 264 267 261 263 263 261 261 263 264 265 265 268 267 266 266 266 266 269 269 271 271 271 272
279 278 277 275 272 263 257 260 260 261 264 261 258 260 257 258 261 264 263 262 263 264 264 266 266 267 268 269 272 272 273 273
269 270 268 271 272 270 269 268 260 260 261 260 259 258 255 255 257 260 262 263 262 261 261 265 269 266 267 268 270 271 273 272
267 269 267 268 270 272 271 267 263 261 261 259 256 256 256 256 257 258 257 259 260 261 263 264 267 266 267 269 271 272 274 274
267 268 268 267 266 263 266 267 265 264 262 262 262 261 257 254 253 256 257 258 261 261 261 264 264 265 267 268 271 273 273 272
271 263 258 259 262 260 258 259 261 262 261 260 260 262 261 255 251 255 255 258 261 262 263 263 264 268 268 269 271 269 270 271
272 265 264 262 258 256 257 256 258 259 261 261 260 260 262 261 258 258 258 258 260 260 261 263 265 268 268 268 269 270 271 274
276 272 265 263 258 258 254 254 256 256 256 258 260 261 262 261 261 261 261 260 261 260 262 263 267 270 273 274 277 275 277 282
272 272 269 265 264 256 254 254 255 255 256 257 258 259 261 262 261 262 263 264 264 264 265 267 270 270 272 272 270 279 283 280
273 271 270 269 265 262 258 253 249 250 252 253 255 256 258 260 261 261 262 263 263 263 264 265 265 265 269 274 273 273 274 277
273 272 270 268 265 263 259 256 254 251 251 250 251 253 255 257 257 258 258 259 261 261 262 262 264 267 268 268 269 270 273 273
271 271 271 269 266 264 263 260 257 256 254 249 249 250 251 252 254 255 256 257 258 260 261 262 264 265 267 268 269 271 272 272
271 270 269 270 271 270 266 264 261 259 259 257 253 249 248 251 252 253 254 256 256 258 259 260 261 262 264 265 266 268 270 271
273 273 272 271 271 271 269 265 262 259 257 257 256 252 250 250 251 252 253 254 255 256 256 257 259 260 261 263 266 267 269 269
274 273 271 270 268 266 266 265 263 260 258 256 255 251 250 250 249 250 252 252 252 252 254 255 256 258 260 262 263 264 265 269
268 269 269 269 269 269 270 269 267 266 263 259 254 251 249 247 248 249 251 252 251 250 251 251 253 254 257 260 262 263 265 265
272 268 267 266 267 269 271 271 270 266 263 262 261 257 253 250 250 249 249 251 250 249 248 249 249 252 255 257 260 262 263 265
275 272 269 267 264 264 265 266 266 266 264 259 258 259 257 255 253 252 252 251 250 247 249 249 248 250 253 255 258 260 261 262
Height
10539 10543 10549 10547 10543 10544 10547 10554 10553 10546 10544 10549 10553 10555 10556 10555 10552 10549 10545 10548 10547 10548 10548 10548 10545 10543 10543 10543 10542 10543 10542 10540
10509 10506 10512 10514 10512 10510 10512 10514 10515 10514 10516 10521 10523 10524 10523 10523 10519 10516 10517 10519 10520 10520 10524 10522 10521 10519 10517 10515 10514 10516 10516 10514
10478 10472 10470 10475 10474 10477 10473 10475 10476 10477 10485 10486 10489 10489 10492 10490 10485 10483 10486 10489 10490 10488 10492 10491 10492 10492 10492 10490 10485 10487 10486 10484
10440 10436 10430 10431 10432 10433 10442 10440 10437 10437 10438 10443 10447 10452 10452 10450 10451 10454 10456 10454 10455 10460 10458 10458 10461 10463 10463 10462 10460 10456 10452 10453
10401 10402 10396 10393 10396 10399 10399 10403 10404 10402 10399 10400 10407 10412 10415 10416 10419 10420 10420 10422 10423 10424 10425 10427 10428 10433 10431 10430 10427 10425 10421 10420
10361 10361 10361 10361 10358 10353 10359 10361 10364 10367 10367 10369 10371 10374 10381 10384 10383 10386 10388 10387 10387 10389 10392 10395 10398 10399 10397 10398 10397 10395 10390 10388
10321 10326 10323 10323 10330 10328 10320 10318 10326 10331 10332 10334 10337 10338 10343 10351 10351 10353 10355 10355 10354 10356 10356 10359 10364 10365 10366 10366 10366 10360 10358 10357
10282 10290 10293 10292 10294 10296 10296 10291 10288 10291 10297 10300 10301 10303 10305 10312 10319 10320 10322 10324 10326 10326 10324 10325 10329 10332 10332 10334 10334 10330 10328 10327
10243 10252 10251 10255 10254 10259 10258 10257 10257 10259 10262 10263 10267 10267 10269 10275 10280 10284 10288 10293 10296 10295 10295 10296 10303 10301 10300 10300 10300 10296 10295 10297
10198 10207 10214 10213 10218 10219 10221 10219 10219 10222 10225 10227 10228 10232 10233 10237 10244 10248 10254 10259 10263 10265 10267 10268 10272 10270 10267 10266 10266 10260 10266 10264
10162 10165 10169 10174 10173 10183 10184 10184 10186 10193 10194 10195 10195 10199 10198 10200 10209 10216 10221 10224 10226 10232 10235 10235 10240 10241 10242 10238 10233 10240 10238 10235
10122 10126 10128 10129 10135 10140 10144 10143 10150 10154 10158 10159 10160 10164 10166 10167 10172 10178 10182 10187 10194 10198 10202 10209 10210 10203 10207 10213 10211 10208 10209 10205
10082 10086 10088 10088 10090 10097 10102 10101 10108 10114 10119 10124 10126 10127 10131 10134 10140 10146 10150 10156 10158 10163 10166 10172 10174 10175 10180 10180 10181 10172 10179 10180
10048 10050 10049 10042 10042 10055 10056 10062 10067 10074 10079 10085 10090 10098 10098 10098 10104 10111 10114 10122 10128 10131 10135 10138 10141 10139 10144 10145 10153 10143 10144 10147
10013 10016 10021 10009 10011 10014 10022 10027 10034 10039 10041 10045 10055 10063 10062 10066 10072 10077 10084 10088 10096 10101 10104 10109 10109 10109 10113 10115 10119 10111 10114 10111
9983 9984 9988 9982 9984 9975 9976 9986 9997 10002 10007 10009 10014 10023 10028 10035 10039 10042 10049 10054 10062 10069 10072 10077 10079 10078 10078 10083 10084 10085 10082 10080
9954 9953 9952 9949 9949 9940 9939 9946 9957 9967 9970 9974 9978 9984 9990 9997 10004 10008 10013 10020 10029 10035 10041 10046 10047 10047 10045 10050 10053 10055 10052 10047
9927 9923 9921 9920 9917 9910 9913 9919 9926 9935 9939 9943 9945 9948 9954 9961 9969 9975 9978 9985 9993 10002 10007 10012 10014 10017 10016 10016 10016 10021 10024 10025
9902 9901 9898 9897 9894 9888 9889 9893 9897 9902 9908 9910 9912 9919 9926 9932 9935 9939 9947 9951 9962 9969 9973 9977 9983 9986 9985 9983 9982 9990 9997 9999
9873 9873 9874 9875 9870 9867 9867 9868 9869 9870 9874 9881 9888 9891 9894 9900 9906 9910 9918 9922 9927 9938 9939 9945 9950 9953 9953 9953 9957 9964 9972 9969